Tracking 29892 objects as of 21-Nov-2024
HD Live streaming from Space Station
objects crossing your sky now

FENGYUN 1C DEB

Track FENGYUN 1C DEB now!
10-day predictions


NORAD ID: 31946
Int'l Code: 1999-025CMX
Perigee: 792.1 km
Apogee: 917.0 km
Inclination: 98.9 °
Period: 101.9 minutes
Semi major axis: 7225 km
RCS: 0.0117 m2 (small)
Launch date: May 10, 1999
Source: People's Republic of China (PRC)
Launch site: Taiyaun Space Center, China (TSC)

Note: This is SATELLITE DEBRIS
Your satellite tracking list
Your tracking list is empty




NASA's NSSDC Master Catalog

Two Line Element Set (TLE):
1 31946U 99025CMX 24321.88240551  .00003950  00000-0  20470-2 0  9995
2 31946  98.9158  16.7312 0086453  80.5322 280.5609 14.13493285584806
Source of the keplerian elements: AFSPC